EZY14MW EGNT-LIRF

Flight info

Callsign EZY14MW
Flight time N/A
Altitude 37000
Route GIRLI P18 GASKO P16 RIBEL UP16 CROFT UL612 HON DCT XAMAB UL612 OGULO DCT OKASI DCT OKEKO DCT MOU DCT MADIV DCT MOKIP DCT TUFTA DCT KOGAS DCT MEDAM DCT NITAM DCT MOGBO DCT ELB DCT ELKAP
Aircraft A20N/M-SDE2E3FGHIJ1RWXYZ/LB1

Departure

Time 2026-05-06 14:53
Airport Newcastle International Airport (EGNT)

Arrival

Time N/A
Airport Rome–Fiumicino Leonardo da Vinci International Airport (LIRF)
Time Latitude Longitude Altitude Speed Heading
2026-05-06 14:23 55.03661 -1.70780 267 ft 0 kts
2026-05-06 14:45 55.03647 -1.70782 267 ft 4 kts
2026-05-06 14:45 55.03625 -1.70786 267 ft 4 kts 23°
2026-05-06 14:45 55.03606 -1.70813 267 ft 4 kts 57°
2026-05-06 14:46 55.03591 -1.70842 267 ft 2 kts 11°
2026-05-06 14:46 55.03573 -1.70847 267 ft 0 kts
2026-05-06 14:48 55.03577 -1.70845 267 ft 3 kts
2026-05-06 14:48 55.03591 -1.70758 267 ft 12 kts 86°
2026-05-06 14:49 55.03570 -1.70665 267 ft 12 kts 152°
2026-05-06 14:49 55.03469 -1.70652 267 ft 7 kts 178°
2026-05-06 14:49 55.03468 -1.70652 267 ft 0 kts 178°
2026-05-06 14:51 55.03467 -1.70652 267 ft 1 kts 178°
2026-05-06 14:51 55.03420 -1.70649 267 ft 11 kts 176°
2026-05-06 14:51 55.03377 -1.70557 267 ft 11 kts 79°
2026-05-06 14:52 55.03395 -1.70465 266 ft 0 kts 66°
2026-05-06 14:52 55.03428 -1.70338 265 ft 41 kts 66°
2026-05-06 14:53 55.03651 -1.69480 257 ft 110 kts 66°
2026-05-06 14:53 55.04050 -1.67936 289 ft 159 kts 66°
2026-05-06 14:53 55.04533 -1.66229 932 ft 157 kts 63°
2026-05-06 14:53 55.05079 -1.64550 1683 ft 160 kts 60°
2026-05-06 14:54 55.05685 -1.62901 2397 ft 164 kts 59°
2026-05-06 14:54 55.06206 -1.61031 2995 ft 177 kts 69°
2026-05-06 14:54 55.06640 -1.58994 3803 ft 179 kts 70°
2026-05-06 14:54 55.06977 -1.56889 4548 ft 184 kts 88°
2026-05-06 14:55 55.06616 -1.54734 5245 ft 192 kts 125°
2026-05-06 14:55 55.05544 -1.53338 5946 ft 198 kts 163°
2026-05-06 14:55 55.04158 -1.53157 6632 ft 205 kts 181°
2026-05-06 14:55 55.02658 -1.53207 7050 ft 225 kts 182°
2026-05-06 14:56 55.01009 -1.53252 7382 ft 249 kts 181°
2026-05-06 14:56 54.99218 -1.53283 7829 ft 270 kts 182°
2026-05-06 14:56 54.97317 -1.53811 8472 ft 281 kts 199°
2026-05-06 14:56 54.95555 -1.55275 9405 ft 283 kts 212°
2026-05-06 14:57 54.93859 -1.57052 10299 ft 286 kts 212°
2026-05-06 14:57 54.92096 -1.58884 10726 ft 307 kts 212°
2026-05-06 14:57 54.90196 -1.60844 11028 ft 329 kts 212°
2026-05-06 14:57 54.88186 -1.62909 11642 ft 338 kts 212°
2026-05-06 14:58 54.86153 -1.64990 12465 ft 341 kts 212°
2026-05-06 14:58 54.84098 -1.67093 13266 ft 345 kts 212°
2026-05-06 14:58 54.82019 -1.69218 14043 ft 348 kts 213°
2026-05-06 14:58 54.79921 -1.71360 14773 ft 351 kts 213°
2026-05-06 14:59 54.77800 -1.73524 15496 ft 354 kts 213°
2026-05-06 14:59 54.75665 -1.75702 16209 ft 357 kts 213°
2026-05-06 14:59 54.73513 -1.77886 16916 ft 361 kts 212°
2026-05-06 14:59 54.71232 -1.79772 17593 ft 366 kts 205°
2026-05-06 15:00 54.68847 -1.81486 18286 ft 370 kts 205°
2026-05-06 15:00 54.66443 -1.83201 18897 ft 372 kts 205°
2026-05-06 15:00 54.64030 -1.84895 19499 ft 375 kts 205°
2026-05-06 15:00 54.61608 -1.86582 20085 ft 378 kts 205°
2026-05-06 15:01 54.59154 -1.88288 20662 ft 381 kts 205°
2026-05-06 15:01 54.56686 -1.90004 21251 ft 384 kts 205°
2026-05-06 15:01 54.54178 -1.91748 21822 ft 387 kts 205°
2026-05-06 15:01 54.51684 -1.93480 22395 ft 390 kts 205°
2026-05-06 15:02 54.49157 -1.95234 22959 ft 393 kts 205°
2026-05-06 15:02 54.46623 -1.96991 23494 ft 396 kts 205°
2026-05-06 15:02 54.44055 -1.98769 23968 ft 399 kts 205°
2026-05-06 15:02 54.41465 -2.00558 24438 ft 402 kts 205°
2026-05-06 15:03 54.38855 -2.02361 24884 ft 404 kts 205°
2026-05-06 15:03 54.36259 -2.04151 25314 ft 407 kts 205°
2026-05-06 15:03 54.33618 -2.05970 25757 ft 410 kts 205°
2026-05-06 15:03 54.30957 -2.07799 26174 ft 413 kts 204°
2026-05-06 15:04 54.28280 -2.09637 26583 ft 416 kts 204°
2026-05-06 15:04 54.25599 -2.11475 26999 ft 418 kts 204°
2026-05-06 15:04 54.22867 -2.13345 27409 ft 420 kts 204°
2026-05-06 15:04 54.20141 -2.15209 27794 ft 423 kts 204°
2026-05-06 15:05 54.17314 -2.17139 28175 ft 426 kts 204°
2026-05-06 15:05 54.14607 -2.18985 28545 ft 428 kts 204°
2026-05-06 15:05 54.11827 -2.20877 28915 ft 430 kts 204°
2026-05-06 15:05 54.09066 -2.22753 29242 ft 432 kts 204°
2026-05-06 15:06 54.06228 -2.24680 29600 ft 435 kts 204°
2026-05-06 15:06 54.03392 -2.26603 29921 ft 437 kts 204°
2026-05-06 15:06 54.00534 -2.28537 30236 ft 439 kts 204°
2026-05-06 15:06 53.97667 -2.30474 30526 ft 441 kts 204°
2026-05-06 15:07 53.94818 -2.32396 30818 ft 443 kts 204°
2026-05-06 15:07 53.91932 -2.34341 31129 ft 445 kts 204°
2026-05-06 15:07 53.89042 -2.36285 31472 ft 445 kts 204°
2026-05-06 15:07 53.86163 -2.38218 31853 ft 444 kts 204°
2026-05-06 15:08 53.83288 -2.40146 32230 ft 444 kts 204°
2026-05-06 15:08 53.80412 -2.42072 32601 ft 443 kts 204°
2026-05-06 15:08 53.77541 -2.43992 32948 ft 443 kts 204°
2026-05-06 15:08 53.74706 -2.45885 33284 ft 442 kts 204°
2026-05-06 15:09 53.71843 -2.47794 33616 ft 442 kts 204°
2026-05-06 15:09 53.68976 -2.49704 33938 ft 442 kts 204°
2026-05-06 15:09 53.67052 -2.50874 34130 ft 443 kts 198°
2026-05-06 15:09 53.62963 -2.51913 34457 ft 448 kts 182°
2026-05-06 15:10 53.59847 -2.51409 34666 ft 453 kts 170°
2026-05-06 15:10 53.56831 -2.49789 34880 ft 457 kts 159°
2026-05-06 15:10 53.54892 -2.48396 35039 ft 457 kts 159°
2026-05-06 15:10 53.51916 -2.46262 35275 ft 457 kts 159°
2026-05-06 15:11 53.49023 -2.44201 35486 ft 457 kts 159°
2026-05-06 15:11 53.45994 -2.42055 35706 ft 457 kts 160°
2026-05-06 15:11 53.43089 -2.40005 35905 ft 457 kts 160°
2026-05-06 15:11 53.40147 -2.37934 36110 ft 457 kts 160°
2026-05-06 15:12 53.37210 -2.35871 36309 ft 457 kts 160°
2026-05-06 15:12 53.34314 -2.33836 36497 ft 457 kts 159°
2026-05-06 15:12 53.31383 -2.31768 36679 ft 457 kts 160°
2026-05-06 15:12 53.28444 -2.29708 36856 ft 457 kts 158°
2026-05-06 15:13 53.25504 -2.27644 37022 ft 457 kts 160°
2026-05-06 15:13 53.19624 -2.23574 37021 ft 456 kts 160°
2026-05-06 15:14 53.13772 -2.19479 37032 ft 456 kts 159°
2026-05-06 15:14 53.07943 -2.15202 37040 ft 456 kts 158°
2026-05-06 15:15 53.02403 -2.10012 37032 ft 460 kts 146°
2026-05-06 15:15 52.97192 -2.03825 37041 ft 460 kts 148°
2026-05-06 15:16 52.91783 -1.98153 37041 ft 460 kts 151°
2026-05-06 15:16 52.86313 -1.92746 37046 ft 459 kts 152°
2026-05-06 15:17 52.80848 -1.87400 37036 ft 459 kts 152°
2026-05-06 15:17 52.75307 -1.81989 37022 ft 457 kts 152°
2026-05-06 15:18 52.69856 -1.76677 37011 ft 458 kts 152°
2026-05-06 15:18 52.64355 -1.71332 37024 ft 458 kts 152°
2026-05-06 15:19 52.58861 -1.66009 37024 ft 458 kts 152°
2026-05-06 15:19 52.53371 -1.60706 37020 ft 457 kts 152°
2026-05-06 15:20 52.47873 -1.55409 37018 ft 457 kts 152°
2026-05-06 15:20 52.42427 -1.50179 37015 ft 456 kts 152°
2026-05-06 15:21 52.36939 -1.44923 37011 ft 456 kts 152°
2026-05-06 15:21 52.31417 -1.39651 37013 ft 455 kts 152°
2026-05-06 15:22 52.25936 -1.34432 37014 ft 455 kts 152°
2026-05-06 15:22 52.20442 -1.29217 37012 ft 455 kts 152°
2026-05-06 15:23 52.14994 -1.24061 37019 ft 455 kts 152°
2026-05-06 15:23 52.09474 -1.18851 37006 ft 455 kts 152°
2026-05-06 15:24 52.04023 -1.13720 36995 ft 455 kts 152°
2026-05-06 15:24 51.98535 -1.08570 36982 ft 455 kts 152°
2026-05-06 15:25 51.93008 -1.03398 36984 ft 455 kts 152°
2026-05-06 15:25 51.87499 -0.98258 36997 ft 456 kts 152°
2026-05-06 15:26 51.81777 -0.92935 36993 ft 456 kts 152°
2026-05-06 15:26 51.76351 -0.87902 36998 ft 456 kts 152°
2026-05-06 15:27 51.70763 -0.82733 37003 ft 456 kts 152°
2026-05-06 15:27 51.65260 -0.77657 37002 ft 456 kts 152°
2026-05-06 15:28 51.59893 -0.72720 37000 ft 456 kts 152°
2026-05-06 15:28 51.55311 -0.68517 36999 ft 456 kts 152°
2026-05-06 15:29 51.49750 -0.63428 36998 ft 456 kts 152°
2026-05-06 15:29 51.44257 -0.58416 36998 ft 456 kts 152°
2026-05-06 15:30 51.38732 -0.53388 36998 ft 456 kts 152°
2026-05-06 15:30 51.33217 -0.48383 36995 ft 456 kts 152°
2026-05-06 15:31 51.27606 -0.43306 36990 ft 456 kts 152°
2026-05-06 15:31 51.22129 -0.38364 36993 ft 455 kts 152°
2026-05-06 15:32 51.13742 -0.30823 36993 ft 455 kts 152°
2026-05-06 15:32 51.08219 -0.25874 36995 ft 454 kts 152°
2026-05-06 15:33 51.02704 -0.20946 36990 ft 454 kts 152°
2026-05-06 15:33 50.97182 -0.16024 36966 ft 454 kts 152°
2026-05-06 15:34 50.91720 -0.11171 36964 ft 453 kts 152°
2026-05-06 15:34 50.86209 -0.06286 36965 ft 453 kts 152°
2026-05-06 15:35 50.80692 -0.01410 36964 ft 453 kts 152°
2026-05-06 15:35 50.75174 0.03460 36955 ft 453 kts 151°
2026-05-06 15:36 50.69679 0.08371 36948 ft 453 kts 152°
2026-05-06 15:36 50.64256 0.13201 36920 ft 453 kts 152°
2026-05-06 15:37 50.58765 0.18073 36920 ft 453 kts 152°
2026-05-06 15:37 50.53269 0.22929 36905 ft 453 kts 152°
2026-05-06 15:38 50.47776 0.27765 36894 ft 453 kts 152°
2026-05-06 15:38 50.42268 0.32594 36897 ft 453 kts 152°
2026-05-06 15:39 50.36746 0.37416 36888 ft 453 kts 152°
2026-05-06 15:39 50.31236 0.42210 36884 ft 453 kts 152°
2026-05-06 15:40 50.25713 0.46995 36877 ft 453 kts 152°
2026-05-06 15:40 50.20118 0.51496 36952 ft 451 kts 154°
2026-05-06 15:41 50.14584 0.56032 36955 ft 452 kts 153°
2026-05-06 15:41 50.09051 0.60721 36954 ft 452 kts 152°
2026-05-06 15:42 50.03527 0.65427 36957 ft 452 kts 152°
2026-05-06 15:42 49.97995 0.70127 36957 ft 452 kts 152°
2026-05-06 15:43 49.92493 0.74786 36956 ft 453 kts 153°
2026-05-06 15:43 49.86946 0.79471 36954 ft 453 kts 153°
2026-05-06 15:44 49.81389 0.84151 36956 ft 453 kts 153°
2026-05-06 15:44 49.75867 0.88791 36959 ft 454 kts 153°
2026-05-06 15:45 49.70302 0.93453 36963 ft 454 kts 153°
2026-05-06 15:45 49.64745 0.98097 36959 ft 453 kts 153°
2026-05-06 15:46 49.59171 1.02744 36965 ft 453 kts 153°
2026-05-06 15:46 49.53842 1.07819 36967 ft 455 kts 139°
2026-05-06 15:47 49.49300 1.14651 36966 ft 456 kts 136°
2026-05-06 15:47 49.44803 1.21555 36965 ft 456 kts 136°
2026-05-06 15:48 49.40267 1.28383 36967 ft 456 kts 137°
2026-05-06 15:48 49.35746 1.35134 36967 ft 455 kts 137°
2026-05-06 15:49 49.31168 1.41945 36961 ft 455 kts 137°
2026-05-06 15:49 49.29141 1.44952 36958 ft 455 kts 137°
2026-05-06 15:50 49.26898 1.48279 37108 ft 422 kts 137°
2026-05-06 15:50 49.24910 1.51230 36956 ft 390 kts 137°
2026-05-06 15:50 49.22993 1.54067 36945 ft 361 kts 137°
2026-05-06 15:50 49.21240 1.56656 36934 ft 339 kts 137°
2026-05-06 15:51 49.19589 1.59091 36939 ft 321 kts 138°
2026-05-06 15:51 49.17962 1.61488 36931 ft 306 kts 138°
2026-05-06 15:51 49.16497 1.63643 36932 ft 294 kts 138°
2026-05-06 15:51 49.14980 1.65873 36933 ft 283 kts 138°
2026-05-06 15:52 49.13510 1.68031 36933 ft 275 kts 138°
2026-05-06 15:52 49.12163 1.70009 36930 ft 267 kts 138°
2026-05-06 15:52 49.10813 1.71990 36930 ft 261 kts 139°
2026-05-06 15:52 49.09434 1.74011 36927 ft 255 kts 139°
2026-05-06 15:53 49.08225 1.75783 36931 ft 250 kts 139°
2026-05-06 15:53 49.06985 1.77598 36932 ft 245 kts 139°
2026-05-06 15:53 49.05771 1.79374 36935 ft 240 kts 139°
2026-05-06 15:53 49.04557 1.81148 36935 ft 236 kts 139°
2026-05-06 15:54 49.03638 1.82490 36930 ft 233 kts 139°
2026-05-06 15:54 49.02171 1.84631 36931 ft 227 kts 139°
2026-05-06 15:54 49.01039 1.86284 36936 ft 223 kts 139°
2026-05-06 15:54 48.99930 1.87901 36921 ft 220 kts 139°
2026-05-06 15:55 48.98816 1.89520 36799 ft 222 kts 139°
2026-05-06 15:55 48.97692 1.91144 36696 ft 222 kts 139°
2026-05-06 15:55 48.96573 1.92755 36661 ft 220 kts 139°
2026-05-06 15:55 48.95459 1.94354 36599 ft 219 kts 140°
2026-05-06 15:56 48.94344 1.95947 36513 ft 220 kts 140°
2026-05-06 15:56 48.93555 1.97068 36465 ft 220 kts 140°
2026-05-06 15:56 48.92287 1.98866 36419 ft 218 kts 140°
2026-05-06 15:56 48.91290 2.00271 36346 ft 218 kts 140°
2026-05-06 15:57 48.90174 2.01840 36267 ft 219 kts 140°
2026-05-06 15:57 48.89047 2.03416 36230 ft 218 kts 140°
2026-05-06 15:57 48.87897 2.05018 36203 ft 217 kts 140°
2026-05-06 15:57 48.86793 2.06551 36149 ft 217 kts 140°
2026-05-06 15:58 48.85673 2.08100 36087 ft 217 kts 140°
2026-05-06 15:58 48.84626 2.09540 36047 ft 217 kts 140°
2026-05-06 15:58 48.83487 2.11101 36008 ft 216 kts 141°
2026-05-06 15:58 48.82378 2.12615 35964 ft 215 kts 141°
2026-05-06 15:59 48.81260 2.14133 35902 ft 216 kts 141°
2026-05-06 15:59 48.80143 2.15643 35854 ft 215 kts 141°
2026-05-06 15:59 48.79021 2.17152 35812 ft 214 kts 141°
2026-05-06 15:59 48.77887 2.18669 35748 ft 215 kts 141°
2026-05-06 16:00 48.76740 2.20199 35707 ft 215 kts 141°
2026-05-06 16:00 48.75591 2.21724 35675 ft 214 kts 141°
2026-05-06 16:00 48.74445 2.23237 35633 ft 214 kts 141°
2026-05-06 16:00 48.73317 2.24720 35596 ft 213 kts 141°
2026-05-06 16:01 48.72177 2.26213 35558 ft 213 kts 142°
2026-05-06 16:01 48.71054 2.27675 35509 ft 213 kts 142°
2026-05-06 16:01 48.69931 2.29133 35472 ft 212 kts 142°
2026-05-06 16:01 48.69165 2.30122 35447 ft 212 kts 142°
2026-05-06 16:02 48.67651 2.32071 35395 ft 212 kts 142°
2026-05-06 16:02 48.66506 2.33538 35376 ft 212 kts 142°
2026-05-06 16:02 48.65761 2.34487 35365 ft 211 kts 142°
2026-05-06 16:02 48.64267 2.36380 35335 ft 209 kts 142°
2026-05-06 16:03 48.63093 2.37854 34639 ft 240 kts 141°
2026-05-06 16:03 48.62143 2.39010 33279 ft 293 kts 142°
2026-05-06 16:03 48.60288 2.41187 31888 ft 348 kts 142°
2026-05-06 16:03 48.58350 2.43468 31730 ft 360 kts 142°
2026-05-06 16:04 48.56392 2.45802 32184 ft 356 kts 141°
2026-05-06 16:04 48.54434 2.48146 32230 ft 364 kts 142°
2026-05-06 16:04 48.50293 2.53113 32365 ft 379 kts 142°
2026-05-06 16:05 48.46084 2.58163 32516 ft 394 kts 142°
2026-05-06 16:05 48.41706 2.63406 32674 ft 409 kts 142°
2026-05-06 16:06 48.37126 2.68874 32836 ft 425 kts 142°
2026-05-06 16:06 48.32368 2.74540 32985 ft 439 kts 142°
2026-05-06 16:07 48.29949 2.77412 33093 ft 444 kts 142°
2026-05-06 16:07 48.27516 2.80297 33342 ft 446 kts 142°
2026-05-06 16:07 48.25069 2.83192 33670 ft 446 kts 142°
2026-05-06 16:07 48.22629 2.86074 33988 ft 446 kts 142°
2026-05-06 16:08 48.20185 2.88965 34221 ft 447 kts 142°
2026-05-06 16:08 48.17717 2.91892 34459 ft 447 kts 142°
2026-05-06 16:08 48.15236 2.94845 34688 ft 448 kts 142°
2026-05-06 16:08 48.12802 2.97754 34936 ft 448 kts 142°
2026-05-06 16:09 48.10388 3.00652 35167 ft 448 kts 142°
2026-05-06 16:09 48.07927 3.03619 35403 ft 449 kts 142°
2026-05-06 16:09 48.05501 3.06552 35598 ft 450 kts 142°
2026-05-06 16:09 48.02998 3.09578 35820 ft 450 kts 142°
2026-05-06 16:10 48.00530 3.12567 36029 ft 450 kts 142°
2026-05-06 16:10 47.98098 3.15518 36230 ft 451 kts 142°
2026-05-06 16:10 47.95633 3.18510 36440 ft 451 kts 142°
2026-05-06 16:10 47.93196 3.21473 36636 ft 451 kts 142°
2026-05-06 16:11 47.90764 3.24431 36822 ft 451 kts 142°
2026-05-06 16:11 47.88295 3.27436 36904 ft 452 kts 142°
2026-05-06 16:11 47.83405 3.33395 36905 ft 450 kts 142°
2026-05-06 16:12 47.79344 3.38339 36903 ft 450 kts 142°
2026-05-06 16:12 47.74415 3.44335 36908 ft 450 kts 142°
2026-05-06 16:13 47.69569 3.50232 36899 ft 450 kts 142°
2026-05-06 16:13 47.64683 3.56179 36905 ft 450 kts 142°
2026-05-06 16:14 47.59818 3.62102 36906 ft 451 kts 142°
2026-05-06 16:14 47.54902 3.68088 36915 ft 451 kts 142°
2026-05-06 16:15 47.52675 3.71382 36910 ft 453 kts 129°
2026-05-06 16:15 47.50985 3.75251 36905 ft 455 kts 117°
2026-05-06 16:15 47.49887 3.79502 36895 ft 458 kts 105°
2026-05-06 16:15 47.49391 3.84206 36898 ft 460 kts 94°
2026-05-06 16:16 47.49263 3.93641 36891 ft 460 kts 92°
2026-05-06 16:16 47.48156 4.02855 36884 ft 454 kts 115°
2026-05-06 16:17 47.46684 4.06956 36881 ft 450 kts 127°
2026-05-06 16:17 47.44662 4.10480 36876 ft 446 kts 139°
2026-05-06 16:17 47.42194 4.13252 36872 ft 443 kts 152°
2026-05-06 16:17 47.39426 4.15220 36878 ft 441 kts 159°
2026-05-06 16:18 47.33984 4.19472 36874 ft 444 kts 147°
2026-05-06 16:18 47.29154 4.25111 36880 ft 447 kts 141°
2026-05-06 16:19 47.24504 4.31245 36883 ft 448 kts 140°
2026-05-06 16:19 47.19872 4.37402 36892 ft 449 kts 140°
2026-05-06 16:20 47.15220 4.43540 36889 ft 450 kts 140°
2026-05-06 16:20 47.10550 4.49677 36884 ft 448 kts 141°
2026-05-06 16:21 47.05891 4.55783 36876 ft 448 kts 141°
2026-05-06 16:21 47.01239 4.61866 36892 ft 447 kts 141°
2026-05-06 16:22 46.96585 4.67936 36891 ft 448 kts 141°
2026-05-06 16:22 46.91924 4.73999 36877 ft 447 kts 141°
2026-05-06 16:23 46.87273 4.80037 36876 ft 447 kts 141°
2026-05-06 16:23 46.82594 4.86095 36882 ft 446 kts 141°
2026-05-06 16:24 46.77933 4.92116 36881 ft 446 kts 141°
2026-05-06 16:24 46.73272 4.98124 36873 ft 446 kts 141°
2026-05-06 16:25 46.68649 5.04066 36876 ft 446 kts 141°
2026-05-06 16:25 46.63950 5.10093 36880 ft 446 kts 142°
2026-05-06 16:26 46.59313 5.16026 36887 ft 447 kts 142°
2026-05-06 16:26 46.54573 5.22076 36891 ft 447 kts 142°
2026-05-06 16:27 46.49915 5.28009 36896 ft 447 kts 142°
2026-05-06 16:27 46.45955 5.33047 36900 ft 448 kts 142°
2026-05-06 16:28 46.41253 5.39017 36907 ft 448 kts 142°
2026-05-06 16:28 46.36762 5.45355 36902 ft 451 kts 137°
2026-05-06 16:29 46.32368 5.51952 36909 ft 451 kts 138°
2026-05-06 16:29 46.27985 5.58400 36923 ft 451 kts 139°
2026-05-06 16:30 46.24303 5.63756 36924 ft 451 kts 139°
2026-05-06 16:30 46.19151 5.71223 36917 ft 451 kts 139°
2026-05-06 16:31 46.14714 5.77637 36912 ft 450 kts 139°
2026-05-06 16:31 46.10246 5.84080 36918 ft 450 kts 139°
2026-05-06 16:32 46.05834 5.90428 36913 ft 451 kts 139°
2026-05-06 16:32 46.01377 5.96825 36913 ft 451 kts 140°
2026-05-06 16:33 45.96796 6.03384 36910 ft 451 kts 140°
2026-05-06 16:34 45.90210 6.12787 36911 ft 451 kts 140°
2026-05-06 16:34 45.85766 6.19111 36905 ft 451 kts 140°
2026-05-06 16:35 45.81300 6.25452 36920 ft 451 kts 140°
2026-05-06 16:35 45.76803 6.31822 36927 ft 451 kts 141°
2026-05-06 16:36 45.72359 6.38102 36929 ft 451 kts 141°
2026-05-06 16:36 45.67834 6.44481 36937 ft 450 kts 141°
2026-05-06 16:37 45.63467 6.50623 36952 ft 451 kts 141°
2026-05-06 16:37 45.58988 6.56910 36935 ft 449 kts 141°
2026-05-06 16:38 45.54528 6.63153 36942 ft 449 kts 141°
2026-05-06 16:38 45.50049 6.69405 36935 ft 449 kts 141°
2026-05-06 16:39 45.45600 6.75605 36928 ft 450 kts 142°
2026-05-06 16:39 45.41131 6.81816 36915 ft 447 kts 142°
2026-05-06 16:40 45.36682 6.87989 36905 ft 446 kts 142°
2026-05-06 16:40 45.32259 6.94108 36897 ft 446 kts 142°
2026-05-06 16:41 45.27780 7.00285 36882 ft 450 kts 142°
2026-05-06 16:41 45.23299 7.06460 36874 ft 447 kts 142°
2026-05-06 16:42 45.18814 7.12619 36852 ft 449 kts 142°
2026-05-06 16:42 45.14367 7.18715 36885 ft 446 kts 142°
2026-05-06 16:43 45.09898 7.24829 36881 ft 446 kts 142°
2026-05-06 16:43 45.05436 7.30922 36874 ft 445 kts 143°
2026-05-06 16:44 45.01020 7.36934 36876 ft 445 kts 143°
2026-05-06 16:44 44.96571 7.43000 36794 ft 446 kts 142°
2026-05-06 16:45 44.92154 7.49185 36798 ft 448 kts 142°
2026-05-06 16:45 44.87727 7.55401 36797 ft 448 kts 142°
2026-05-06 16:46 44.83260 7.61643 36798 ft 449 kts 142°
2026-05-06 16:46 44.78809 7.67836 36794 ft 450 kts 142°
2026-05-06 16:47 44.75074 7.73020 36801 ft 451 kts 142°
2026-05-06 16:47 44.70547 7.79291 36790 ft 452 kts 142°
2026-05-06 16:48 44.66111 7.85421 36797 ft 453 kts 142°
2026-05-06 16:48 44.61594 7.91647 36797 ft 454 kts 143°
2026-05-06 16:49 44.57052 7.97895 36798 ft 454 kts 143°
2026-05-06 16:49 44.52519 8.04117 36779 ft 453 kts 143°
2026-05-06 16:50 44.47981 8.10331 36778 ft 453 kts 143°
2026-05-06 16:50 44.43480 8.16477 36782 ft 454 kts 143°
2026-05-06 16:51 44.38943 8.22660 36790 ft 454 kts 143°
2026-05-06 16:51 44.34405 8.28830 36798 ft 455 kts 143°
2026-05-06 16:52 44.29854 8.35003 36803 ft 455 kts 143°
2026-05-06 16:52 44.25326 8.41133 36810 ft 456 kts 143°
2026-05-06 16:53 44.20760 8.47298 36818 ft 456 kts 143°
2026-05-06 16:53 44.16186 8.53461 36819 ft 457 kts 143°
2026-05-06 16:54 44.11600 8.59627 36832 ft 457 kts 143°
2026-05-06 16:54 44.06983 8.65819 36830 ft 458 kts 143°
2026-05-06 16:55 44.02416 8.71930 36840 ft 459 kts 143°
2026-05-06 16:55 43.97797 8.78098 36848 ft 459 kts 143°
2026-05-06 16:56 43.93179 8.84250 36859 ft 460 kts 144°
2026-05-06 16:56 43.88579 8.90366 36860 ft 461 kts 144°
2026-05-06 16:57 43.83934 8.96526 36873 ft 461 kts 144°
2026-05-06 16:57 43.79288 9.02673 36873 ft 462 kts 144°
2026-05-06 16:58 43.74629 9.08825 36881 ft 462 kts 144°
2026-05-06 16:58 43.69967 9.14965 36883 ft 463 kts 144°
2026-05-06 16:59 43.65318 9.21074 36890 ft 463 kts 144°
2026-05-06 16:59 43.60635 9.27215 36891 ft 463 kts 144°
2026-05-06 17:00 43.55978 9.33309 36896 ft 463 kts 144°
2026-05-06 17:00 43.51298 9.39419 36897 ft 463 kts 144°
2026-05-06 17:01 43.46611 9.45525 36902 ft 463 kts 144°
2026-05-06 17:01 43.41908 9.51636 36897 ft 463 kts 144°
2026-05-06 17:02 43.37183 9.57763 36900 ft 463 kts 144°
2026-05-06 17:02 43.32516 9.63802 36895 ft 464 kts 144°
2026-05-06 17:03 43.27808 9.69880 36901 ft 464 kts 144°
2026-05-06 17:03 43.23119 9.75918 36926 ft 464 kts 144°
2026-05-06 17:04 43.20269 9.79583 36912 ft 464 kts 144°
2026-05-06 17:04 43.15584 9.85596 36912 ft 464 kts 144°
2026-05-06 17:05 43.10862 9.91644 36902 ft 464 kts 144°
2026-05-06 17:05 43.06129 9.97692 36911 ft 464 kts 144°
2026-05-06 17:06 43.01392 10.03730 36909 ft 465 kts 144°
2026-05-06 17:06 42.96670 10.09737 36889 ft 465 kts 144°
2026-05-06 17:06 42.94299 10.12747 36656 ft 465 kts 144°
2026-05-06 17:07 42.91950 10.15729 36392 ft 465 kts 144°
2026-05-06 17:07 42.89570 10.18746 36126 ft 465 kts 144°
2026-05-06 17:07 42.87199 10.21746 35577 ft 467 kts 144°
2026-05-06 17:07 42.84803 10.24773 34878 ft 470 kts 144°
2026-05-06 17:08 42.82430 10.27771 34245 ft 469 kts 144°
2026-05-06 17:08 42.80034 10.30797 33459 ft 470 kts 144°
2026-05-06 17:08 42.77646 10.33811 32858 ft 466 kts 144°
2026-05-06 17:08 42.76046 10.35915 32402 ft 468 kts 139°
2026-05-06 17:09 42.73524 10.40759 31370 ft 483 kts 123°
2026-05-06 17:09 42.72268 10.45022 30668 ft 490 kts 109°
2026-05-06 17:09 42.71671 10.49585 30187 ft 491 kts 97°
2026-05-06 17:09 42.71679 10.54232 29552 ft 490 kts 89°
2026-05-06 17:10 42.71859 10.58813 29239 ft 479 kts 91°
2026-05-06 17:10 42.71791 10.61837 28961 ft 470 kts 100°
2026-05-06 17:10 42.71086 10.66086 28646 ft 451 kts 115°
2026-05-06 17:10 42.69744 10.69791 28383 ft 437 kts 128°
2026-05-06 17:11 42.68124 10.73277 27902 ft 435 kts 128°
2026-05-06 17:11 42.66484 10.76777 27416 ft 431 kts 128°
2026-05-06 17:11 42.64897 10.80210 26936 ft 427 kts 125°
2026-05-06 17:11 42.63332 10.83571 26435 ft 423 kts 128°
2026-05-06 17:12 42.61762 10.86918 25929 ft 419 kts 128°
2026-05-06 17:12 42.60194 10.90245 25449 ft 415 kts 126°
2026-05-06 17:12 42.58626 10.93522 24970 ft 412 kts 128°
2026-05-06 17:12 42.57071 10.96784 24494 ft 408 kts 128°
2026-05-06 17:13 42.55526 11.00000 24028 ft 404 kts 127°
2026-05-06 17:13 42.53995 11.03129 23576 ft 401 kts 128°
2026-05-06 17:13 42.52518 11.06178 23059 ft 398 kts 128°
2026-05-06 17:13 42.51000 11.09306 22523 ft 394 kts 127°
2026-05-06 17:14 42.49487 11.12386 21999 ft 391 kts 128°
2026-05-06 17:14 42.47946 11.15411 21487 ft 387 kts 129°
2026-05-06 17:14 42.46459 11.18436 20981 ft 385 kts 127°
2026-05-06 17:14 42.45162 11.21515 20488 ft 385 kts 120°
2026-05-06 17:15 42.44185 11.24901 19989 ft 386 kts 110°
2026-05-06 17:15 42.43264 11.32108 19109 ft 382 kts 100°
2026-05-06 17:15 42.42933 11.35587 18972 ft 375 kts 99°
2026-05-06 17:16 42.42596 11.39150 18946 ft 378 kts 101°
2026-05-06 17:16 42.42202 11.42632 18941 ft 379 kts 102°
2026-05-06 17:16 42.41736 11.46189 18922 ft 378 kts 103°
2026-05-06 17:16 42.41326 11.49709 18903 ft 379 kts 99°
2026-05-06 17:17 42.41009 11.53259 18878 ft 379 kts 101°
2026-05-06 17:17 42.40650 11.56799 18858 ft 379 kts 101°
2026-05-06 17:17 42.40286 11.60331 18831 ft 378 kts 101°
2026-05-06 17:17 42.39924 11.63827 18811 ft 379 kts 100°
2026-05-06 17:18 42.39563 11.67362 18785 ft 379 kts 100°
2026-05-06 17:18 42.39250 11.70898 18770 ft 379 kts 100°
2026-05-06 17:18 42.38902 11.74431 18755 ft 379 kts 101°
2026-05-06 17:19 42.37423 11.88725 18671 ft 378 kts 101°
2026-05-06 17:19 42.37065 11.92137 18634 ft 376 kts 101°